Weather in Otkaznoye

Russia / Stavropol Krai     44°19′25″N   43°51′23″E
temp.,
°C
wind,
m/s
gust,
m/s
humid.,
%
clouds,
%
prec.,
mm/h
press.,
hPa
HPBL,
m
14 april, wed
wed1400:00+9w358788 0.0 1018142
03:00+10w4985100 0.0 1017346
06:00+9nw41083100 0.0 1017435
09:00+12wnw71068100 0.1 1018799
12:00+13wnw5663100 0.2 1018981
15:00+14nw676098 0.5 10171031
18:00+13nw366893 0.0 1018237
21:00+10nw3479100 0.0 101962
15 april, thu
thu1500:00+9nw2282100 0.0 101836
03:00+8wnw228785 0.0 101818
06:00+7w22855 0.0 101930
09:00+14w23605 0.0 1018603
12:00+18nw344010 0.0 10171560
15:00+19nnw3434100 0.0 10161927
18:00+16nne3452100 0.0 101656
21:00+12ne226143 0.0 101713
16 april, fri
fri1600:00+11sse00676 0.0 101710
03:00+10s11705 0.0 101710
06:00+10s117192 0.0 101810
09:00+16ese33536 0.0 1018479
12:00+20ese454274 0.0 10171525
15:00+21ese563985 0.0 10161947
18:00+17ese495448 0.0 1015187
21:00+13wnw3477100 0.8 101887
17 april, sat
sat1700:00+11nw3692100 0.1 1019165
03:00+10nw3696100 0.1 1019172
06:00+10nw4991100 0.0 1021503
09:00+11n4782100 0.0 1022572
12:00+11nnw2482100 0.0 1023514
15:00+10nnw2386100 0.4 1024271
18:00+10nw1187100 0.0 102434
21:00+10sw3486100 0.1 1023110
18 april, sun
sun1800:00+10ssw228298 0.0 102261
03:00+9ese1184100 0.0 102114
06:00+9ene2388100 0.8 1021117
09:00+10e3487100 1.7 1021267
12:00+12ese467396 0.0 1019597
15:00+17se5660100 0.0 10171281
18:00+15sse3675100 0.1 1018260
21:00+11ese129280 0.7 101929